Temp
22 22 22 22 22 22 22 21 22 22 22 22 22 22 22 22 22 23 23 23 23 23 24 24 24 24 24 24 24 24 24 24 24 24 24 24 24 23 23 23 23 23 23 23 24 24 23 22 22 21 23 22 19 19 19 17 17 20 22 22 22 21 21 21 21 19 21 22 20 17 18 20 19 16 14 13 14 14 13 13 12 11 10 9 10 11 12 12
22 22 22 22 22 22 22 22 22 22 22 22 22 22 22 22 22 22 23 23 23 23 24 24 23 24 24 24 24 23 24 24 24 24 24 24 24 24 23 23 23 23 23 23 23 23 24 23 20 20 23 22 19 20 20 18 18 21 21 22 22 22 21 20 20 19 20 22 20 17 17 19 19 17 14 16 17 13 14 14 12 13 11 9 9 10 11 11
22 22 22 22 22 22 22 22 22 22 22 22 22 22 22 22 22 22 23 23 23 23 24 24 24 24 24 24 24 23 24 23 24 24 24 24 24 24 23 24 23 23 24 24 23 22 23 23 20 21 23 22 19 20 22 20 19 19 20 23 23 21 21 19 19 20 19 19 19 18 16 17 17 16 15 17 17 14 15 16 14 15 13 10 9 9 10 10
21 21 21 22 22 22 22 22 22 22 22 22 22 22 22 22 22 22 22 23 23 23 24 24 24 24 24 24 23 23 23 24 25 24 24 24 24 24 24 24 24 24 24 23 24 22 22 21 20 21 23 23 20 19 22 20 19 19 20 24 22 19 21 20 19 19 18 16 19 19 16 18 16 14 15 17 17 16 15 16 16 17 14 10 9 8 9 10
21 21 21 21 22 22 22 22 22 22 22 22 22 22 22 22 22 22 22 23 23 23 24 24 24 23 23 24 23 23 23 25 25 23 23 23 23 24 24 24 24 24 24 24 24 22 22 20 20 22 23 23 21 21 22 18 18 21 20 21 19 17 22 21 18 18 17 16 18 18 18 18 15 15 15 16 20 20 17 16 16 16 13 10 10 9 9 9
21 21 21 21 21 22 22 22 22 22 22 22 22 22 22 22 22 22 22 23 23 23 24 24 24 23 23 23 23 23 23 25 24 22 23 23 23 24 24 24 24 24 24 24 23 22 23 21 22 24 23 22 22 21 21 17 17 21 21 19 17 17 21 20 17 17 17 18 20 19 18 16 16 17 15 15 19 19 16 14 14 14 11 10 10 9 9 9
20 21 21 21 21 21 21 21 22 22 22 22 22 22 22 22 22 22 22 23 23 23 23 23 23 23 23 23 23 22 22 24 23 22 23 23 23 23 23 24 24 24 24 24 23 23 23 23 24 22 22 23 21 20 20 18 17 21 22 20 18 16 19 19 17 17 17 19 19 16 17 17 18 18 14 14 17 17 13 10 10 11 10 10 9 9 9 9
20 20 20 21 21 21 21 21 21 21 22 22 22 22 22 22 22 22 22 23 23 23 24 23 23 23 22 22 23 22 22 23 22 22 23 23 23 23 23 24 24 24 23 23 22 22 22 23 22 20 22 23 20 20 19 19 20 21 21 20 18 17 19 18 16 17 17 18 16 15 18 19 17 16 14 16 17 15 12 9 9 9 9 9 9 9 9 8
20 20 20 20 21 21 21 21 21 21 22 22 22 22 22 22 22 22 22 23 22 23 23 23 23 22 22 22 21 23 23 22 22 22 22 23 23 23 23 24 24 24 23 23 21 22 22 22 21 21 23 21 20 21 19 21 22 21 20 20 19 19 19 17 17 18 16 16 15 17 20 18 14 14 16 18 16 13 11 11 10 9 9 9 9 9 8 8
19 19 20 20 20 21 21 21 21 21 21 22 22 22 22 22 22 22 22 23 23 23 23 23 23 22 22 21 21 24 23 22 22 22 22 23 22 22 23 23 23 24 23 22 21 21 22 22 19 18 21 20 19 20 18 21 21 19 19 19 19 19 18 16 18 17 15 16 15 18 20 17 13 15 19 18 12 11 12 11 9 9 10 9 9 9 8 8
17 18 19 19 19 20 20 21 21 21 22 22 22 22 23 22 23 23 23 23 23 23 23 23 22 22 22 21 22 24 22 22 22 22 22 22 22 22 23 23 23 23 23 21 20 20 21 21 17 17 21 21 20 19 18 19 19 18 18 19 18 17 17 16 17 17 16 17 16 17 19 16 14 15 20 17 10 10 13 11 9 9 10 9 9 8 8 8
16 17 17 18 19 19 19 20 20 21 21 22 22 23 23 23 23 23 23 23 23 23 23 22 22 22 21 21 22 23 22 21 22 22 22 22 22 22 22 23 22 23 23 21 19 19 20 19 18 20 21 20 20 20 19 17 16 17 17 20 20 19 19 17 17 16 16 18 16 16 19 17 16 17 18 15 9 9 12 12 9 8 9 8 9 8 8 7
15 15 16 17 17 18 19 19 20 20 21 21 22 23 23 23 23 23 23 23 23 23 22 22 22 21 21 22 22 21 21 21 21 21 22 22 22 22 21 22 22 22 23 21 20 19 20 19 19 20 19 20 21 19 18 16 16 18 17 19 21 21 21 17 16 15 16 18 16 17 20 20 19 18 17 12 8 10 12 11 9 8 8 8 8 8 8 7
14 14 15 16 16 17 18 19 19 19 20 21 22 22 23 23 23 23 23 23 23 22 22 21 21 21 21 22 21 20 21 20 21 21 21 21 21 21 21 21 21 21 21 21 20 19 19 19 19 19 17 18 19 17 18 18 17 18 18 18 18 20 21 18 15 16 18 17 15 17 20 21 21 20 17 10 9 11 13 12 9 8 8 8 8 8 8 7
13 13 14 15 15 16 17 18 18 18 20 20 21 22 22 23 23 23 23 23 22 22 22 21 21 20 20 22 21 20 20 20 20 20 20 21 21 20 20 20 20 20 20 20 20 19 19 19 20 20 18 16 17 19 21 21 19 18 20 20 18 18 20 19 16 15 19 17 14 18 20 20 21 20 15 9 8 11 13 12 9 8 8 8 8 7 8 8
12 12 13 14 14 15 16 17 17 18 19 20 21 22 22 23 23 23 22 22 22 21 21 21 20 20 22 22 20 20 20 20 19 19 20 20 21 21 19 19 19 19 19 19 19 19 19 20 18 17 18 18 19 22 21 21 20 18 19 21 20 19 20 19 17 14 16 17 16 17 19 20 20 18 12 7 8 10 11 12 9 9 8 8 8 8 8 8
11 11 12 13 13 14 16 16 17 17 18 20 21 22 23 23 23 22 21 21 21 21 20 20 20 20 22 21 21 21 19 18 19 19 19 20 20 21 20 18 17 17 18 18 19 19 19 19 16 16 18 18 18 21 21 20 21 19 18 20 19 19 19 19 19 15 14 16 17 17 17 19 20 18 13 9 8 9 11 11 10 9 8 8 8 8 8 8
11 11 11 11 13 14 15 16 16 17 18 19 20 22 23 23 22 21 21 21 20 20 20 20 20 22 23 21 21 20 18 18 18 18 19 19 19 20 20 18 16 17 19 19 19 19 19 18 17 19 20 18 19 21 21 20 21 21 20 20 19 18 18 18 19 17 15 17 17 16 16 17 18 18 16 12 8 10 11 11 11 10 9 8 8 8 8 8
10 10 10 10 11 13 14 15 16 17 17 19 20 22 22 22 21 20 20 20 21 22 23 21 21 23 23 21 19 18 17 17 18 18 18 19 19 19 20 19 17 19 21 21 21 19 19 20 19 20 20 20 21 21 22 22 22 21 20 20 20 19 18 18 18 16 15 17 17 16 16 17 17 18 18 15 9 10 12 10 10 10 9 8 8 8 8 8
10 10 10 10 10 11 13 15 15 16 17 19 20 21 22 22 22 22 20 20 21 21 22 22 21 22 22 20 18 17 18 17 18 18 18 18 19 19 19 18 19 20 20 21 21 17 17 21 21 20 21 22 22 21 20 20 19 19 19 19 19 18 18 18 17 15 13 16 17 16 16 16 16 16 17 16 12 10 11 10 10 10 9 9 8 8 8 8
9 10 10 9 9 10 12 14 14 16 17 18 19 20 21 21 22 22 20 20 18 14 17 19 16 18 20 18 17 18 19 19 18 17 18 18 18 20 20 18 20 21 18 18 19 16 17 20 20 20 21 21 20 17 17 17 17 18 19 18 18 17 17 17 16 14 13 15 16 16 15 15 15 16 16 16 14 14 13 11 11 11 10 9 9 9 8 8
9 9 9 9 9 9 11 13 13 15 17 17 18 18 17 17 18 18 17 20 18 11 13 14 13 16 16 15 17 17 19 20 19 17 17 17 18 20 20 19 20 20 17 16 18 18 19 20 20 19 17 16 15 14 16 18 17 18 17 17 18 16 16 17 14 12 12 14 16 15 14 15 15 15 16 16 16 16 15 13 13 12 11 10 9 9 9 8
9 9 9 9 9 9 11 12 13 14 16 17 18 17 15 15 16 15 16 19 19 15 14 15 17 18 17 16 16 17 19 20 20 19 16 17 18 18 20 19 19 19 17 18 20 19 20 20 17 15 15 17 16 14 16 18 17 17 17 17 19 16 17 19 15 12 12 13 14 14 13 14 16 16 16 16 16 16 16 14 13 12 12 11 11 10 9 9
9 9 9 9 9 9 10 12 13 14 15 15 16 16 15 16 15 15 16 18 18 17 16 15 16 17 18 17 16 18 19 18 19 19 16 17 19 17 19 19 18 19 18 18 19 19 21 18 12 11 15 18 18 15 15 18 18 17 16 17 18 17 17 18 15 13 13 13 11 13 16 18 17 17 17 15 14 14 15 14 13 11 11 11 11 10 10 9
9 9 9 9 9 9 10 12 13 13 14 14 15 15 15 15 15 15 17 18 18 18 16 15 14 16 17 16 16 17 18 18 18 16 14 17 18 18 18 18 18 20 18 17 17 18 20 15 11 14 16 16 19 18 16 18 18 17 17 17 17 18 17 15 14 14 16 16 12 13 19 20 17 17 18 16 15 16 15 14 14 12 10 10 10 10 10 9
10 9 9 9 9 9 10 12 12 11 13 13 14 15 14 15 15 14 17 18 18 19 19 18 18 18 18 16 16 16 19 19 15 13 14 16 17 18 19 17 17 18 17 16 17 18 17 12 12 17 17 16 18 18 16 16 18 18 17 15 15 16 16 14 14 15 17 16 13 13 18 19 17 20 21 19 19 19 17 16 16 14 11 10 10 10 10 9
10 9 10 9 9 9 10 11 11 11 13 13 13 14 14 14 14 14 18 18 18 21 20 18 18 19 18 15 14 18 21 19 14 13 14 15 16 17 19 18 17 16 15 16 19 18 15 12 13 16 17 17 17 18 16 15 18 18 13 12 14 14 15 15 15 15 15 13 12 13 16 16 16 18 20 20 21 20 18 18 17 15 13 11 10 10 10 10
10 10 10 9 9 9 9 9 10 11 12 12 12 13 14 14 14 16 19 19 19 21 21 18 17 17 16 13 14 17 17 16 17 16 13 14 16 16 19 18 18 18 15 17 21 17 14 15 16 15 16 16 17 16 14 14 19 16 10 10 13 13 14 14 14 14 13 11 13 14 13 14 16 16 16 17 18 19 19 20 20 18 15 13 11 10 10 10
9 10 10 9 9 9 9 9 9 10 11 12 12 13 13 13 14 17 18 18 20 22 20 19 17 16 16 15 15 16 15 15 18 16 13 15 15 15 17 16 17 18 15 15 20 18 14 13 14 15 18 17 15 12 10 14 18 12 8 10 11 11 11 12 13 14 12 11 15 15 13 15 18 17 15 14 16 18 20 20 20 18 16 14 12 11 10 9
9 10 9 9 9 9 9 9 10 11 11 11 12 12 13 14 16 18 16 17 21 21 19 18 18 17 16 17 17 16 15 16 15 15 15 15 15 15 15 13 15 18 16 15 17 16 12 9 10 14 16 14 11 8 7 11 12 10 11 13 13 12 10 10 11 12 14 15 17 16 14 16 18 17 16 16 17 20 21 21 20 18 17 15 13 11 10 9
10 10 9 9 9 9 9 9 10 10 10 11 12 11 14 16 17 17 16 18 21 19 18 18 17 17 16 18 19 16 15 16 15 15 16 15 15 16 15 15 16 17 17 17 17 15 13 12 13 13 11 10 11 10 8 8 8 11 14 16 16 15 13 13 12 12 15 18 17 13 11 14 17 17 17 17 17 18 21 23 24 23 22 19 15 12 10 9
10 10 9 9 9 9 9 9 10 10 10 10 10 12 16 17 16 16 17 19 21 20 20 19 16 16 16 17 18 16 15 17 15 15 16 15 15 16 16 18 18 18 19 18 17 17 16 14 14 12 10 11 15 15 11 9 10 12 15 16 16 16 16 16 16 14 16 18 15 10 10 13 16 17 17 16 17 17 18 20 22 24 24 21 18 14 11 9
10 10 9 9 9 9 9 10 10 9 10 10 10 14 17 17 16 17 18 20 21 18 18 17 15 15 16 17 17 15 15 17 15 15 15 15 15 15 16 16 17 19 20 17 16 18 18 15 12 14 13 12 16 17 15 14 12 13 15 16 17 17 17 18 17 15 16 17 13 9 12 15 16 18 18 17 19 19 18 16 17 19 21 20 17 13 11 10
10 9 9 9 9 9 9 9 9 9 9 10 12 16 16 15 16 17 18 20 19 16 16 16 14 15 16 17 17 15 17 18 15 15 15 14 15 16 16 15 15 17 18 17 17 18 20 18 15 16 16 13 15 16 16 15 11 12 14 15 17 17 18 20 19 18 19 18 13 10 13 16 18 19 18 17 17 18 18 16 15 15 16 14 13 11 11 10
10 9 9 9 9 9 9 9 9 9 9 10 13 15 15 16 17 17 18 19 18 17 15 14 15 16 16 16 15 15 18 19 15 14 15 15 15 16 17 16 14 16 18 18 18 17 18 20 16 12 11 11 13 13 13 14 14 12 12 14 15 16 18 19 16 15 15 15 14 13 14 16 18 17 16 15 16 17 18 16 15 16 15 13 13 12 12 10
9 9 9 8 9 9 10 9 9 9 9 11 14 14 15 18 18 17 18 19 19 19 17 15 16 17 17 16 16 15 16 17 15 15 15 14 15 15 16 17 15 15 18 19 18 17 18 19 13 9 10 10 11 11 11 14 16 13 11 14 13 12 16 18 15 11 11 14 16 15 15 17 17 17 16 16 17 18 17 15 15 16 15 14 13 13 12 11
9 9 9 8 9 10 10 9 9 9 9 11 13 14 15 18 18 18 18 18 18 19 19 18 18 18 18 19 18 16 16 16 15 16 16 15 16 16 15 17 16 15 18 19 19 19 19 19 13 11 15 11 6 9 11 11 13 13 13 14 12 12 14 16 16 14 13 15 16 16 17 19 19 18 16 15 17 18 17 16 15 15 14 14 13 13 12 11
9 9 9 8 9 10 10 9 9 9 9 10 12 14 16 17 17 17 18 17 18 19 19 19 19 18 19 19 18 15 15 17 15 15 17 16 17 17 15 17 16 15 17 19 20 19 19 21 16 10 12 10 6 10 13 10 9 12 12 12 13 15 15 14 15 16 16 15 16 18 18 18 19 19 17 17 18 18 17 16 14 14 14 14 13 13 12 11
9 9 9 9 9 10 10 9 9 9 9 10 11 13 15 16 16 16 17 18 19 19 19 19 19 19 18 18 18 16 15 17 15 15 17 17 17 17 16 18 18 15 16 17 19 18 17 20 18 9 7 10 9 11 14 12 9 10 11 10 12 15 15 14 14 15 16 16 16 18 19 19 20 21 20 20 20 18 18 17 15 15 15 14 13 13 12 11
9 9 9 10 10 10 9 9 9 9 9 11 12 13 13 15 15 16 17 17 18 18 18 18 19 18 18 16 17 17 16 16 15 15 17 17 17 17 16 18 19 15 14 15 17 18 17 18 19 12 6 9 12 12 14 14 11 10 11 12 12 13 13 13 13 13 15 17 16 16 18 19 20 21 22 22 21 19 18 18 17 16 16 14 13 13 12 11
9 9 9 10 10 9 9 9 9 9 9 11 12 12 13 14 15 16 15 15 16 17 17 18 18 18 18 17 16 16 16 15 14 15 16 16 17 19 17 17 18 15 14 15 16 17 17 17 18 15 11 12 14 12 11 13 13 12 12 13 13 13 13 14 14 12 12 15 16 15 17 19 19 20 21 21 20 19 18 18 19 18 18 16 13 12 12 11
9 9 9 9 9 9 9 9 9 9 9 10 12 12 13 14 14 15 15 14 14 15 15 16 17 17 18 17 16 16 16 16 15 14 15 16 17 19 18 16 15 15 15 16 15 15 16 17 17 18 17 14 11 8 7 9 12 13 13 13 13 13 14 15 16 14 12 12 12 13 14 18 19 20 20 19 19 19 18 18 18 18 17 15 14 12 10 9
10 9 8 8 8 9 9 9 9 9 9 10 12 12 12 13 13 13 15 15 14 15 15 15 16 16 17 17 16 16 16 17 16 14 15 16 16 17 17 15 14 15 17 16 15 15 16 17 17 17 18 13 9 8 7 8 11 13 12 12 12 13 14 15 15 14 13 13 12 12 13 16 19 18 18 18 18 18 16 15 16 17 15 13 13 13 11 9
10 9 7 7 8 9 9 9 10 10 9 10 11 11 11 12 12 12 13 14 15 15 15 15 15 16 16 16 16 16 16 16 16 15 16 17 16 14 14 15 15 16 17 17 17 17 16 17 17 16 17 16 13 12 10 10 11 12 12 11 12 13 14 13 12 11 13 13 13 13 14 17 19 17 16 17 17 16 14 12 13 14 13 12 13 13 11 8
10 9 7 7 7 8 9 10 10 10 10 10 10 10 10 11 11 12 12 13 14 14 15 15 15 15 16 15 16 16 15 16 17 16 16 17 15 11 12 15 16 16 17 17 17 17 17 17 17 16 16 16 16 16 15 13 11 11 11 11 11 12 13 13 13 12 12 13 13 14 16 18 19 18 17 18 17 16 15 13 11 11 11 11 11 12 11 8
10 9 8 7 7 8 8 9 9 9 10 10 10 10 10 10 11 11 11 12 13 13 14 14 14 15 15 15 15 15 15 15 16 16 16 16 15 13 11 12 15 15 15 15 16 16 16 16 17 18 17 17 18 19 16 14 13 12 12 12 11 12 12 13 13 13 13 12 13 15 16 17 18 18 18 18 18 18 17 16 14 13 12 11 10 10 9 7
11 10 8 7 8 8 8 8 8 9 10 10 10 11 10 10 11 11 11 12 13 13 13 14 14 14 15 15 15 15 15 15 14 15 16 15 15 14 10 10 12 12 12 14 14 15 16 16 16 17 18 18 19 19 16 15 16 15 13 13 12 11 11 11 12 13 14 13 12 15 15 15 15 17 17 18 18 18 18 17 16 16 15 13 12 10 8 7
11 11 10 10 10 8 8 8 8 8 9 10 10 12 11 10 10 11 11 11 11 12 13 13 13 14 14 15 15 14 15 15 14 14 15 15 14 14 12 12 11 10 11 12 12 13 15 16 17 17 16 17 17 18 16 15 16 16 15 14 14 12 10 10 11 13 14 13 14 15 15 14 15 16 17 17 18 18 17 17 16 16 15 14 13 11 9 8
10 10 10 11 10 10 9 9 9 9 9 9 10 11 11 11 11 12 11 11 10 11 12 12 13 13 14 14 14 13 14 14 14 14 15 15 14 14 14 14 11 9 11 12 12 12 13 15 16 16 15 15 15 16 15 14 14 15 15 15 15 13 11 11 11 13 13 13 14 15 14 14 15 17 17 18 18 17 16 16 16 16 15 15 14 12 10 9
11 10 11 10 10 10 10 10 9 9 9 9 9 10 10 11 12 12 12 12 11 11 11 12 13 13 13 13 12 12 13 14 15 15 15 14 14 14 14 15 14 10 10 12 12 11 12 14 16 15 14 14 15 15 14 14 14 15 15 15 15 14 12 11 11 12 13 13 13 13 13 13 15 16 16 16 17 16 16 16 16 16 15 15 14 13 11 10
11 11 11 10 9 10 10 10 9 9 9 9 9 10 10 11 12 12 12 13 13 12 11 11 13 13 12 12 12 12 14 14 14 15 15 15 15 15 14 14 15 12 10 10 11 11 11 12 14 13 12 12 14 14 14 14 13 12 13 14 15 14 13 13 13 13 13 13 13 13 12 13 15 16 16 15 15 15 15 15 15 15 15 14 14 14 13 11
10 10 10 10 10 10 10 10 10 9 9 10 9 10 11 11 12 12 12 12 13 13 12 12 12 12 12 12 12 13 14 14 14 15 15 15 15 15 15 14 14 14 12 11 10 11 11 12 12 12 11 11 13 13 13 13 11 11 13 14 14 14 14 14 14 14 14 13 13 13 13 15 16 16 16 15 15 14 14 15 15 15 14 14 14 13 13 12
Height
836 835 834 834 833 832 831 830 829 828 828 827 826 825 824 823 822 821 820 819 818 816 816 816 815 815 814 814 814 814 813 812 812 811 811 811 810 810 810 809 810 809 809 808 808 807 807 808 808 808 808 810 814 816 816 818 820 820 825 830 830 836 835 828 830 831 825 821 827 832 830 828 831 838 840 840 841 842 844 844 844 843 843 842 841 841 842 844
836 835 835 834 833 832 831 831 830 829 828 827 826 825 824 823 822 822 820 820 818 816 816 815 815 814 814 814 814 813 813 812 811 810 810 810 809 809 809 809 809 808 808 807 807 807 807 808 808 808 810 813 817 816 816 819 820 823 830 830 827 830 827 824 824 825 825 821 825 831 831 829 828 834 838 836 838 843 843 842 844 842 841 841 841 841 842 843
836 835 835 834 833 832 831 831 829 829 828 827 826 825 824 823 822 821 820 820 818 817 815 814 814 813 813 813 813 814 813 812 812 810 808 809 809 809 809 808 808 807 807 806 806 806 806 807 807 809 812 815 819 818 817 819 821 825 829 825 824 825 823 825 825 822 823 824 825 829 832 832 830 834 836 834 837 843 838 835 838 837 836 839 841 840 841 842
836 835 835 834 833 832 831 830 829 828 827 826 825 824 824 822 822 821 820 819 818 817 815 814 814 812 813 812 813 813 812 815 813 808 807 808 808 808 808 808 807 806 806 806 805 805 805 806 806 809 812 816 821 821 819 821 822 825 826 820 823 827 822 821 823 822 824 828 825 827 832 831 832 835 834 833 835 838 833 826 825 823 828 836 839 839 839 840
836 835 835 834 833 832 831 830 829 828 827 826 825 824 823 822 821 820 819 818 817 816 815 814 813 812 812 811 813 812 814 820 813 806 807 808 807 808 808 807 807 806 806 805 805 805 805 806 807 810 813 816 820 820 820 824 823 823 824 823 827 828 821 818 824 824 825 828 826 827 828 827 832 834 832 831 825 822 822 819 819 819 824 830 833 836 838 839
836 835 835 833 833 832 831 830 829 827 826 826 824 823 822 821 820 819 818 817 817 815 814 814 813 813 812 811 813 811 816 820 810 806 808 807 807 807 807 807 807 806 805 805 805 805 805 807 808 812 815 818 822 821 821 826 826 822 823 826 828 828 820 820 824 823 825 824 821 825 825 828 831 828 830 830 817 812 817 818 819 821 824 827 829 833 834 836
836 835 834 833 832 831 830 830 828 827 826 825 824 823 822 821 820 819 817 816 816 814 814 813 812 812 812 812 812 812 817 814 806 807 807 806 807 807 806 807 806 806 805 805 805 805 807 808 809 814 816 818 823 823 822 825 826 822 822 823 825 828 821 820 825 824 825 821 821 827 826 826 825 824 831 826 813 814 819 820 820 821 824 828 829 831 831 831
836 835 834 833 832 831 830 829 828 827 825 824 823 822 821 820 819 818 817 815 814 814 813 812 812 812 811 812 812 815 816 809 805 806 806 806 806 806 806 806 806 806 805 804 805 805 807 809 811 815 816 818 821 821 823 823 822 821 823 823 825 826 820 822 826 824 825 823 827 829 823 823 825 828 829 817 810 816 819 820 821 822 825 828 828 829 830 831
835 834 833 833 832 831 830 828 828 826 825 824 822 821 820 818 817 816 815 814 813 812 811 811 811 811 811 811 812 817 812 805 805 805 806 806 805 806 806 806 806 805 805 805 805 804 806 810 812 812 813 818 820 819 823 821 819 821 821 822 823 822 820 823 823 822 826 826 828 825 820 824 829 831 819 806 809 815 818 820 821 823 824 825 826 827 828 829
834 833 833 832 831 830 829 828 827 825 824 823 821 820 819 817 816 815 814 813 812 811 810 810 810 810 811 810 814 817 808 803 805 805 805 805 805 806 805 806 805 805 805 805 805 804 806 808 809 810 811 817 819 821 823 820 819 821 823 823 823 823 823 825 821 823 826 825 827 823 821 825 831 832 811 800 812 815 816 820 821 822 822 823 824 825 826 827
833 832 832 831 830 829 828 827 826 825 823 821 820 819 818 816 815 814 812 811 811 810 809 809 809 810 809 810 815 814 804 803 805 804 805 805 805 805 805 805 805 805 804 804 806 805 805 806 808 810 810 814 818 822 823 821 821 823 824 823 824 825 824 825 823 825 825 823 826 824 823 827 832 828 806 800 815 815 814 818 821 821 820 822 822 823 825 825
832 831 830 829 828 828 827 826 825 823 822 821 819 818 817 815 813 812 811 810 809 808 808 808 809 808 809 810 811 807 802 804 804 804 804 804 805 805 804 805 804 805 804 805 806 805 806 807 807 809 811 813 817 821 820 822 824 825 825 820 821 823 821 824 824 826 826 822 824 826 824 823 825 815 799 806 817 816 815 816 819 820 819 821 821 822 823 822
831 830 829 828 827 826 825 825 824 822 821 819 818 817 816 813 812 811 809 808 807 807 807 807 808 807 809 810 805 802 802 803 803 803 804 804 804 804 804 804 804 805 804 804 805 806 806 806 807 809 812 813 816 819 819 824 826 824 826 824 822 821 819 823 827 828 827 823 824 826 820 810 809 803 800 813 817 815 816 815 818 820 819 820 820 821 821 821
830 829 828 827 826 825 824 824 823 821 819 818 817 816 814 812 811 809 808 807 806 806 806 807 807 807 810 807 801 801 802 802 802 803 803 803 803 803 804 804 804 804 804 805 805 806 806 806 807 809 813 815 817 819 819 824 826 824 825 828 832 826 817 821 828 827 823 824 825 826 823 805 796 797 801 813 815 812 811 811 817 818 818 818 818 819 817 818
829 828 828 826 825 824 824 823 821 820 818 817 816 815 813 811 809 808 807 806 805 806 805 806 806 807 810 806 800 801 801 801 802 802 802 802 802 803 804 804 804 805 805 806 806 807 807 807 807 810 816 818 817 818 819 821 824 828 822 823 835 831 821 821 826 827 820 823 827 825 823 807 795 795 803 815 816 812 808 808 815 815 816 816 815 817 815 815
828 827 826 825 824 823 822 822 820 819 817 816 815 814 812 810 808 807 806 805 805 806 805 807 806 807 811 806 800 801 801 801 801 801 802 802 802 802 803 804 804 805 805 806 806 807 807 808 813 818 817 817 818 817 820 823 823 831 828 820 826 827 825 822 822 829 825 823 826 823 819 806 794 796 808 817 816 814 809 807 812 812 813 813 813 813 813 814
827 826 825 824 823 822 821 820 819 818 816 815 814 812 811 809 807 806 805 805 805 805 805 806 805 807 807 802 801 801 800 801 800 801 801 801 802 801 802 803 805 805 806 806 807 808 808 811 818 820 819 822 823 818 823 827 820 827 833 826 825 827 827 822 817 825 828 824 822 823 821 806 792 794 806 813 815 815 810 805 807 808 809 809 810 811 811 811
827 826 825 823 822 821 820 819 818 817 815 814 813 811 809 808 806 806 805 805 805 805 807 806 807 811 807 800 801 801 800 800 800 801 801 801 802 801 802 803 805 805 806 808 808 809 810 814 819 818 819 824 823 820 822 823 816 818 824 823 825 828 829 825 819 821 824 823 822 824 822 809 795 793 798 807 814 811 803 801 802 802 805 806 808 808 807 808
826 825 824 823 821 820 819 819 818 816 814 813 812 810 807 806 805 805 805 805 806 806 807 805 805 809 806 799 800 800 799 800 800 800 801 801 801 802 802 802 804 805 808 810 808 811 812 814 819 818 818 818 815 814 812 811 811 814 819 821 822 823 824 822 820 822 825 822 820 821 818 807 799 794 791 798 810 807 797 799 800 799 801 804 805 804 803 803
825 824 823 822 821 819 819 818 817 816 815 812 811 810 808 809 808 806 805 804 804 803 803 802 801 801 800 798 799 798 799 800 799 800 800 800 801 802 802 803 805 807 810 810 810 816 818 816 817 814 810 808 807 811 812 814 818 819 822 824 824 826 822 817 818 825 828 822 813 813 815 808 800 795 790 792 803 803 795 797 797 794 796 798 800 798 797 796
824 823 822 822 820 819 818 818 817 816 815 813 812 811 810 813 813 811 808 803 800 800 800 799 800 799 796 796 797 796 798 798 798 799 799 799 800 802 803 805 807 809 814 816 815 818 820 817 811 806 807 808 811 817 819 820 822 821 822 824 826 831 823 815 821 827 829 825 814 812 815 806 797 794 789 791 795 787 784 791 789 786 791 793 793 792 791 792
823 822 822 821 820 819 818 817 816 815 814 814 812 811 811 812 812 812 812 807 800 799 800 800 800 798 795 796 795 796 797 798 797 797 797 799 799 801 803 806 809 810 816 820 816 818 821 813 802 804 814 818 821 825 821 819 822 822 826 828 825 828 823 817 826 831 830 827 816 814 816 800 788 789 782 781 782 771 771 780 778 777 784 786 785 785 786 790
822 821 821 820 819 819 817 816 815 814 813 813 812 811 811 811 812 812 813 812 805 797 798 798 796 795 794 794 793 794 796 796 795 793 795 796 798 801 802 805 810 811 815 815 812 818 817 807 806 813 816 814 818 826 822 819 822 822 825 825 820 823 822 813 821 830 829 829 823 820 816 794 779 779 773 771 772 766 767 771 771 773 776 774 775 778 781 783
820 820 820 819 819 818 816 816 814 814 813 812 812 811 811 811 812 812 811 813 808 797 795 795 794 792 790 790 790 791 794 794 793 791 792 794 797 802 800 802 809 810 812 811 811 814 806 805 819 822 814 809 813 822 823 818 819 822 824 821 815 816 817 815 822 828 825 829 830 821 796 771 769 772 764 768 774 769 767 767 768 770 769 769 771 773 774 775
819 819 818 818 818 816 816 815 813 814 812 811 811 810 812 811 811 812 811 814 811 799 794 792 791 789 786 788 789 790 793 792 791 791 792 793 795 799 800 803 805 804 808 812 815 813 803 810 820 815 813 814 810 815 819 816 817 820 817 814 812 811 814 821 826 825 820 820 828 825 793 762 765 770 761 766 771 765 766 764 761 763 767 770 769 767 768 769
818 818 817 818 817 816 815 814 813 814 812 812 811 810 812 811 811 812 811 818 814 798 791 789 787 785 784 788 790 791 793 790 790 792 792 793 793 794 798 803 804 804 808 812 814 810 807 818 818 808 811 814 810 813 816 817 819 818 814 815 818 817 819 824 825 823 819 819 826 830 813 782 764 759 755 760 760 755 759 758 751 755 762 764 764 761 763 765
817 817 817 817 816 816 815 814 814 813 812 812 811 811 812 810 813 811 812 824 813 787 784 789 787 784 784 789 790 789 790 790 791 792 792 793 793 792 795 801 804 805 809 810 807 804 807 816 817 811 811 813 812 810 812 817 816 814 821 823 820 820 821 822 823 823 824 830 831 825 825 809 777 759 755 752 753 753 755 752 745 747 752 756 757 756 757 758
816 816 815 816 816 816 816 815 814 813 813 812 811 812 811 810 813 809 817 829 805 776 778 786 785 784 785 791 791 789 792 791 789 791 794 793 793 794 795 797 799 800 807 806 799 800 805 807 808 809 811 812 809 808 813 813 807 815 831 831 824 823 824 825 825 826 832 838 829 818 829 819 777 761 766 761 760 758 751 743 736 737 743 747 750 751 751 752
815 814 814 815 814 815 815 814 814 813 813 812 812 812 811 813 812 811 828 829 792 770 777 781 783 786 788 792 792 791 793 792 790 792 794 794 793 794 796 799 799 799 806 805 795 798 807 809 808 805 804 804 808 819 824 811 805 822 836 832 829 831 831 833 829 827 835 834 816 809 823 812 765 748 766 772 767 757 744 737 732 733 740 742 744 745 746 749
814 813 813 813 813 814 814 813 814 812 813 812 812 812 812 813 812 820 835 818 783 776 782 781 783 787 789 791 791 792 793 792 794 794 795 795 794 795 799 801 801 799 804 806 801 802 811 817 815 806 801 806 816 829 832 823 820 828 828 820 823 831 835 840 837 832 830 813 796 796 806 805 772 746 753 758 750 741 733 731 730 730 734 737 740 741 743 746
812 812 812 812 813 813 813 814 813 811 813 812 811 813 812 814 819 827 822 795 779 782 781 781 787 786 787 788 786 791 794 792 794 794 793 796 796 797 799 799 800 803 804 803 800 804 810 811 809 805 809 813 814 821 830 833 832 825 817 812 815 822 827 831 832 833 821 792 785 803 812 808 779 746 743 745 738 735 728 721 719 719 722 726 732 737 740 742
810 810 810 810 811 812 812 812 811 812 812 811 813 812 811 819 821 814 801 783 779 779 774 780 788 787 788 788 786 792 794 790 793 793 793 797 798 796 794 791 793 798 800 800 799 799 799 800 803 804 811 811 801 809 825 830 829 820 814 816 818 821 822 817 815 821 813 789 793 817 817 799 767 737 740 743 736 734 729 721 716 713 714 717 725 733 736 740
808 808 809 809 809 809 810 810 811 812 811 811 813 810 814 823 807 791 790 781 774 777 777 781 789 790 790 788 786 792 792 788 791 793 793 797 798 796 792 790 791 788 788 798 803 796 789 795 804 800 800 802 794 796 805 812 822 818 811 813 814 821 824 813 808 813 803 786 799 821 810 781 751 728 729 730 723 721 721 723 722 717 715 717 723 732 734 737
805 806 806 806 807 808 808 809 810 810 811 812 811 811 820 817 791 779 784 776 772 780 782 784 789 791 788 786 786 788 786 784 788 792 792 797 799 795 790 790 793 788 788 798 800 794 787 782 788 789 787 793 791 788 790 800 817 818 810 811 807 807 807 797 793 794 784 779 799 817 798 760 733 717 716 719 718 718 716 719 724 723 721 723 727 731 732 733
802 803 804 804 805 805 805 808 809 809 812 811 809 813 810 792 779 779 778 772 774 778 783 788 788 786 787 788 788 786 779 778 787 791 791 793 791 786 781 781 788 787 787 793 792 795 793 776 779 794 795 794 791 792 796 797 807 818 817 813 806 800 794 793 801 805 803 798 795 796 775 740 722 717 718 723 722 717 714 716 722 720 718 723 726 725 727 729
799 800 801 801 801 802 803 806 807 809 810 809 811 808 787 766 768 773 766 764 767 769 779 787 784 784 786 785 784 785 780 780 787 788 788 790 785 780 777 771 776 779 774 778 783 787 787 778 787 802 798 798 798 795 799 792 792 813 818 806 805 805 795 794 809 824 829 809 778 770 758 729 719 717 713 719 717 710 713 717 718 715 714 720 722 720 722 724
795 796 797 795 796 800 801 802 806 808 809 810 806 789 768 758 761 761 758 761 762 762 770 776 774 776 776 773 774 779 780 781 786 783 782 785 775 769 773 765 765 769 759 760 768 770 771 772 786 795 785 796 811 802 799 799 795 803 804 796 801 808 803 800 804 810 817 806 775 759 750 726 715 716 715 720 716 707 710 714 713 713 715 717 717 716 718 718
791 793 791 789 792 796 797 800 804 805 808 811 798 775 762 760 757 755 757 758 758 758 763 766 765 764 764 764 767 777 780 776 781 781 774 774 763 753 761 759 758 761 753 753 761 762 766 765 778 797 792 797 812 801 792 802 804 798 796 797 797 795 798 804 807 797 796 802 779 748 741 724 702 703 710 712 709 704 706 710 713 713 712 712 713 713 714 716
789 791 785 780 787 793 794 797 800 804 808 805 790 773 762 757 755 755 752 750 752 755 758 758 756 758 761 761 762 771 775 769 775 777 766 764 759 749 752 749 748 756 754 756 760 759 765 763 767 798 808 799 802 796 784 790 805 805 801 803 798 791 793 796 801 793 784 790 778 751 737 707 677 684 694 692 695 699 700 702 706 708 705 707 709 708 710 713
784 787 779 773 782 788 791 796 798 802 802 788 773 766 762 756 754 752 748 748 749 750 752 752 753 756 758 762 762 762 766 766 770 771 761 757 754 747 748 743 742 755 759 760 761 759 767 765 762 790 814 802 786 780 769 767 786 797 796 798 797 795 800 796 795 796 784 779 778 771 746 692 663 676 680 678 687 692 695 696 696 700 700 702 705 704 706 709
778 782 774 770 777 783 790 796 794 793 790 776 763 761 759 754 750 748 748 751 750 747 749 749 750 751 750 757 761 758 762 766 767 767 759 753 749 741 739 736 738 751 760 764 764 759 764 765 761 775 790 782 766 767 771 765 768 777 778 781 780 783 792 792 789 793 790 779 769 771 751 690 662 674 674 676 686 685 690 692 688 693 694 695 700 702 704 706
775 776 771 770 773 776 784 789 786 784 781 767 756 754 753 750 749 748 747 750 751 750 750 749 748 748 747 749 754 755 757 757 759 763 756 749 745 735 731 735 740 744 749 757 759 757 758 761 763 761 759 766 772 779 787 779 769 770 771 770 771 774 778 775 771 775 785 784 774 778 764 695 656 671 676 678 685 682 685 688 685 689 691 692 697 699 703 705
770 771 771 772 771 771 777 782 780 779 773 760 752 751 750 749 749 749 746 747 749 749 749 747 744 745 744 745 749 751 752 749 750 753 751 745 740 734 733 738 743 742 742 749 754 756 759 760 765 761 751 763 780 785 786 781 773 769 769 771 771 767 762 758 761 764 768 770 770 782 769 697 654 672 682 678 683 683 686 691 687 687 690 694 697 697 701 703
762 767 770 773 774 774 773 770 767 767 765 761 759 756 753 751 749 747 746 744 742 743 742 740 739 739 739 742 744 744 746 745 742 743 742 737 733 735 737 736 738 738 736 739 740 745 754 756 761 767 761 758 764 769 775 778 775 766 763 769 767 761 761 764 770 774 764 752 754 766 748 689 659 678 685 680 683 683 686 693 692 690 692 696 696 695 698 701
759 766 770 771 772 773 767 759 757 759 759 759 759 756 755 752 746 742 743 741 738 738 737 735 736 736 736 740 741 739 742 739 736 738 736 730 731 738 739 732 731 731 729 731 731 733 742 746 749 759 761 755 745 740 748 759 768 768 763 764 763 759 760 759 761 766 757 746 748 746 719 680 665 673 676 676 680 678 680 689 694 695 695 695 695 692 693 697
752 758 767 771 770 767 761 756 759 760 755 755 756 754 754 751 743 739 742 741 738 739 738 736 737 736 735 738 739 736 737 736 735 734 730 727 729 734 739 736 731 731 732 732 732 733 737 737 735 733 734 735 726 718 728 740 748 753 752 752 755 754 753 754 751 745 743 749 745 721 696 685 681 674 668 670 670 667 671 678 684 688 689 691 691 689 690 695
744 745 753 760 762 763 761 757 759 757 752 752 752 746 745 746 744 741 742 740 736 737 739 736 735 735 732 734 735 730 728 733 736 730 723 725 728 732 741 743 736 736 737 735 734 735 735 733 729 723 720 718 712 710 722 730 727 731 738 741 744 747 751 755 744 727 730 744 730 700 693 703 698 678 668 666 662 661 667 671 673 676 677 680 682 684 689 692
738 735 736 739 741 747 750 746 746 748 747 748 744 737 737 742 742 740 738 738 737 736 737 735 732 728 725 724 727 726 726 731 733 726 721 724 729 732 737 739 740 742 740 739 740 738 735 729 722 720 720 717 713 711 719 727 723 721 729 729 729 737 747 748 737 722 721 719 699 687 699 708 694 673 665 663 658 660 666 667 667 670 672 673 675 679 684 686
733 732 732 733 731 731 731 729 733 740 741 742 741 736 734 732 729 727 729 736 738 733 732 730 723 718 718 719 725 729 729 727 723 718 719 723 727 730 732 732 739 746 742 738 740 740 737 728 719 720 721 719 718 715 719 729 726 720 724 723 717 723 736 739 729 714 705 698 690 692 702 699 680 663 662 662 657 661 667 666 663 665 666 668 669 672 677 679
726 725 726 729 728 726 727 726 731 736 736 736 737 731 726 722 718 717 720 723 725 726 727 721 710 709 715 720 726 727 720 714 712 711 715 720 723 727 729 726 729 742 746 739 738 741 738 727 719 722 725 720 714 713 720 727 724 721 722 714 705 714 728 729 718 703 698 701 700 701 704 693 668 658 666 667 661 664 668 664 661 659 660 662 662 663 667 670
720 718 719 723 724 722 724 724 726 730 729 729 728 722 718 715 710 709 710 707 707 713 718 714 707 710 717 721 722 716 705 704 708 707 708 714 716 718 722 722 721 732 742 741 738 740 739 732 725 729 734 725 713 715 720 722 726 731 722 704 700 712 716 708 697 693 698 705 703 703 700 679 656 657 669 667 663 667 667 661 658 656 657 659 657 655 657 658
720 718 717 719 717 714 716 717 719 720 716 713 712 709 707 704 701 705 709 704 700 702 706 707 707 711 716 717 710 701 697 700 703 703 705 710 711 711 714 717 719 724 732 738 738 737 736 732 728 733 737 726 716 719 721 724 734 731 710 695 697 703 702 693 684 684 692 701 702 696 682 661 652 658 662 658 660 665 663 657 654 653 654 654 651 649 650 650
Wind_Speed
9 10 11 13 14 15 16 17 17 18 18 19 19 19 19 18 17 15 14 15 15 14 12 9 6 5 6 6 6 6 7 6 2 1 3 2 0 2 4 4 4 5 5 4 2 4 3 2 2 2 5 3 4 1 2 2 3 3 3 2 1 3 3 5 7 7 3 2 4 5 5 6 4 2 2 1 3 3 1 2 2 3 2 3 5 6 24 32
9 10 11 12 13 14 16 17 17 18 18 18 19 19 19 19 18 17 15 14 15 14 12 10 7 5 6 7 7 6 8 8 3 2 2 3 0 2 4 4 4 4 5 3 2 3 4 1 1 4 4 3 3 2 1 2 3 3 3 2 3 5 5 5 6 5 2 1 4 5 4 4 5 5 4 3 1 2 3 4 3 4 3 1 4 16 27 30
9 10 10 11 12 13 14 16 16 17 18 18 19 19 19 19 19 19 17 15 15 14 12 10 9 6 5 7 8 7 8 7 3 4 5 3 0 2 4 5 5 5 5 4 3 4 5 3 4 5 4 3 2 3 3 3 1 1 3 2 4 5 4 4 5 6 4 2 5 5 4 2 3 5 4 3 3 3 6 7 4 7 7 5 7 18 25 27
10 10 11 12 13 13 14 15 16 16 17 18 18 19 19 19 19 19 19 17 16 15 11 10 9 7 5 4 6 7 5 5 3 4 5 3 1 1 4 5 6 5 5 6 5 5 6 6 6 5 4 2 3 3 2 2 1 1 3 3 4 2 2 3 6 6 4 3 5 5 4 3 3 4 4 6 5 4 8 10 12 13 11 9 8 15 23 25
10 11 12 13 14 14 15 16 16 17 17 18 18 19 19 19 19 19 19 18 17 16 11 8 8 7 5 2 4 5 3 3 3 4 4 3 2 2 3 4 5 5 4 5 5 5 5 5 6 5 4 2 3 4 0 2 1 1 0 3 4 3 1 2 4 4 3 4 4 6 4 4 3 2 5 9 8 7 6 10 13 10 9 13 13 16 20 20
11 12 12 13 14 15 16 17 17 18 18 19 19 19 19 19 19 19 20 19 18 17 11 7 7 6 3 1 2 2 2 0 3 3 3 3 2 2 3 4 4 4 4 4 4 4 4 5 6 4 3 3 2 1 1 3 2 1 2 3 3 3 1 1 2 4 4 6 5 5 4 4 5 4 4 10 13 7 2 5 7 7 12 17 18 17 15 15
12 13 13 14 15 16 17 17 18 19 19 19 19 20 20 20 20 20 20 19 18 16 11 7 6 4 1 2 1 1 2 4 3 4 4 3 3 3 2 3 3 4 3 3 4 4 4 7 5 4 4 3 2 2 1 2 3 3 1 3 3 3 4 2 2 3 4 5 5 4 3 4 7 5 1 9 16 6 1 3 4 9 16 18 14 13 14 17
13 13 13 14 15 16 17 18 19 19 20 20 20 20 21 21 21 20 20 19 18 16 11 6 5 3 2 2 2 2 2 5 4 5 4 3 3 2 2 2 1 2 2 5 4 5 4 5 3 4 3 2 4 3 1 1 2 3 2 3 1 2 5 2 2 4 4 3 2 4 3 5 6 2 1 11 14 5 2 2 5 9 14 14 12 11 13 15
13 13 14 15 16 16 18 19 20 20 21 21 21 21 21 22 22 22 21 20 18 16 11 5 4 3 4 2 4 2 4 5 5 4 3 3 3 2 2 1 1 1 3 6 4 4 3 2 4 4 3 3 4 3 0 1 1 2 4 3 1 3 5 3 1 3 2 2 3 4 5 5 1 1 6 12 9 4 4 5 7 10 11 11 11 11 12 12
14 14 14 15 16 17 18 19 20 21 22 22 22 22 22 22 22 23 22 20 19 15 8 4 4 3 5 3 5 0 4 4 4 3 2 2 3 2 1 2 2 2 4 5 4 4 3 5 5 4 5 3 3 2 1 1 1 3 4 3 2 3 5 3 2 2 1 2 4 5 6 5 3 1 7 6 3 6 7 6 7 10 10 11 10 11 14 14
16 15 16 16 17 17 18 19 20 21 23 23 23 23 23 23 23 23 23 22 19 12 7 4 4 4 5 4 5 3 4 5 4 3 2 2 4 3 2 3 2 3 4 6 5 5 5 8 9 5 2 2 3 1 1 2 2 2 3 2 2 4 4 2 3 4 2 2 5 6 4 4 3 2 10 3 4 6 8 7 7 10 10 10 10 9 11 14
17 17 18 18 18 18 19 19 20 21 23 23 23 24 23 24 24 24 23 22 17 9 5 4 3 5 4 2 4 7 6 6 5 3 2 3 4 4 4 4 3 4 3 5 5 5 6 8 9 5 0 3 3 1 1 2 3 1 3 1 5 6 3 2 2 2 1 2 5 5 3 5 5 11 11 2 5 4 6 8 7 9 8 8 10 7 7 12
18 19 19 19 19 19 19 19 20 21 22 22 23 24 24 24 25 25 24 21 14 6 4 3 4 5 3 1 5 7 8 7 5 3 2 3 5 4 5 5 5 5 4 6 7 7 6 5 7 5 2 5 2 1 3 3 3 1 2 1 3 6 3 2 1 1 2 3 4 3 4 6 11 17 9 4 6 6 6 7 6 7 7 8 9 7 7 12
20 20 20 21 20 20 20 19 20 22 22 23 23 23 24 24 24 25 24 17 9 4 4 2 3 5 3 3 4 5 8 8 5 3 3 4 5 5 5 5 6 7 6 8 8 7 5 5 7 6 2 3 2 2 4 5 3 1 0 2 2 2 3 5 1 4 3 2 3 3 4 8 9 12 6 5 7 8 8 8 6 7 7 8 9 8 8 11
21 21 22 22 22 22 20 19 20 22 23 23 23 23 23 23 24 25 20 10 4 2 2 2 5 5 1 4 3 3 7 7 6 5 3 4 5 4 5 6 7 9 8 8 8 7 6 6 7 5 1 1 3 3 3 4 3 3 1 3 3 0 4 7 2 6 4 1 1 4 4 10 10 8 3 4 6 8 10 8 7 9 9 9 8 9 8 9
21 22 23 23 23 23 21 20 20 21 22 22 23 23 22 23 24 20 12 5 2 1 1 2 6 5 1 3 1 2 4 5 5 6 5 4 4 5 7 8 7 8 8 7 8 7 6 5 4 2 1 1 4 4 3 4 4 3 1 3 3 1 3 6 2 4 3 1 1 4 3 8 8 4 2 3 6 7 9 9 9 10 11 10 8 9 8 8
21 22 23 24 24 24 22 21 20 20 22 22 22 22 21 22 20 12 5 2 0 2 2 2 5 3 2 2 1 2 2 3 5 5 5 4 4 6 8 6 5 6 7 6 5 3 4 4 1 0 2 2 2 4 3 3 4 3 2 2 4 3 3 4 4 3 1 3 4 4 5 12 13 6 2 4 6 7 9 11 11 10 10 9 8 9 9 9
21 22 24 25 25 24 23 21 20 19 21 21 20 21 20 17 12 4 1 1 2 3 3 1 4 2 3 1 1 2 1 3 4 5 6 5 4 5 6 4 4 5 5 4 2 1 2 3 2 1 3 3 2 5 2 4 4 3 3 3 3 3 4 5 5 2 2 3 5 4 7 16 19 13 7 6 7 10 13 12 11 11 10 9 9 10 10 11
20 21 23 25 26 26 24 21 19 18 20 20 17 18 15 11 6 2 2 2 2 1 1 3 3 3 3 2 2 1 2 3 4 4 5 5 5 5 5 5 5 4 3 1 1 1 1 2 2 1 1 2 4 6 8 8 7 6 5 4 4 4 5 6 5 4 2 2 7 8 10 15 18 17 12 7 7 11 14 11 9 10 9 9 10 11 12 14
18 19 22 24 25 26 23 20 18 16 17 18 16 14 8 4 4 3 2 0 4 3 3 5 4 2 4 2 1 3 3 3 3 4 6 6 6 5 4 4 5 4 2 3 1 1 2 1 4 7 7 8 9 9 6 5 6 5 4 4 5 5 7 6 3 4 0 1 9 9 9 14 16 16 15 8 6 11 15 11 11 12 10 10 12 14 15 16
18 19 20 22 25 26 22 18 17 14 13 13 12 8 1 2 1 4 4 5 6 3 3 5 4 5 6 3 4 6 3 1 2 4 8 7 5 4 1 2 3 0 2 3 2 1 2 4 10 9 9 7 6 6 6 5 5 4 5 4 4 5 7 6 1 4 1 2 6 5 6 15 16 14 15 9 7 15 16 13 15 16 11 10 13 16 16 13
19 19 19 20 23 24 21 19 16 13 11 8 6 1 3 4 3 2 0 4 8 3 3 4 1 6 7 4 6 6 4 2 4 4 9 6 3 4 2 3 4 4 2 2 2 2 1 7 12 7 7 5 5 5 7 6 5 3 3 2 3 4 5 6 3 4 1 2 5 6 8 17 18 15 17 14 15 19 13 12 17 15 11 12 15 16 14 12
18 17 17 18 21 22 22 20 16 12 9 6 3 2 4 3 4 3 3 1 7 4 2 2 3 6 5 4 7 8 4 5 5 6 10 9 2 4 4 4 5 3 1 4 6 3 2 8 8 5 9 8 6 4 6 5 3 3 3 3 4 3 1 4 4 3 1 2 4 7 10 15 16 14 16 14 14 15 11 12 15 11 12 15 15 13 13 15
17 15 15 16 18 21 22 20 14 9 6 4 3 4 5 5 6 4 1 0 4 5 3 5 4 5 4 2 8 11 4 4 4 4 9 11 4 3 5 5 5 2 4 7 8 7 8 6 1 6 6 8 6 3 6 5 2 3 5 6 6 4 5 5 3 3 2 1 3 6 10 11 7 8 10 6 3 9 10 10 12 10 12 12 11 12 14 16
17 14 13 14 16 20 22 17 9 5 4 3 3 5 7 6 5 4 2 1 3 6 4 4 3 4 5 5 7 9 2 2 4 3 6 9 6 4 2 3 4 5 7 7 7 7 9 5 5 7 3 5 6 4 5 7 3 3 6 10 10 7 6 3 3 4 4 3 3 5 8 8 1 2 8 3 2 7 6 8 12 11 10 9 10 12 13 14
17 13 12 13 14 20 18 9 5 6 5 3 3 6 7 7 5 3 3 3 3 5 2 3 2 4 6 4 3 5 2 3 3 1 4 5 4 4 2 1 1 3 6 7 4 4 3 1 4 6 5 4 4 5 6 8 5 2 4 7 8 5 3 1 2 2 0 3 3 4 2 9 4 3 6 4 6 9 6 10 14 10 8 10 12 12 12 12
15 13 13 12 12 16 11 4 8 9 4 2 3 6 5 5 5 3 2 3 5 4 3 2 0 3 5 2 1 5 3 4 1 2 2 2 1 2 2 4 1 2 4 4 2 3 2 4 4 5 6 5 5 6 6 9 7 3 3 4 6 6 5 4 3 1 3 2 3 0 3 8 9 5 7 6 9 12 10 13 15 10 9 11 12 12 12 13
14 15 16 13 9 11 9 8 11 7 2 2 2 4 5 5 3 1 2 3 5 1 3 1 1 2 1 1 2 4 2 2 2 1 2 2 1 3 1 6 6 4 3 5 4 4 4 5 6 6 5 5 6 5 7 11 6 4 3 5 6 6 5 4 4 2 2 3 4 4 4 5 11 5 1 1 6 11 12 15 16 11 10 11 12 13 13 13
13 14 12 7 6 10 9 10 9 6 4 3 1 2 4 5 2 4 2 4 4 1 1 1 2 1 2 1 0 2 1 2 1 3 3 2 0 3 2 6 6 5 1 3 5 3 2 4 7 8 6 6 4 1 3 7 4 3 5 6 6 5 5 4 3 2 1 2 7 8 8 5 11 4 4 3 3 9 11 12 13 10 8 9 11 12 12 10
12 11 7 4 5 8 8 8 8 7 6 4 3 2 4 3 2 2 4 6 2 1 1 1 2 2 4 4 2 1 1 1 0 2 3 1 2 5 1 3 6 4 1 3 3 3 1 1 2 4 4 5 5 3 2 2 4 5 6 5 6 5 4 3 1 3 1 5 8 9 13 10 9 3 7 4 5 8 9 8 10 8 7 9 10 10 9 8
11 10 8 7 6 5 5 5 4 4 5 4 2 3 2 1 3 4 8 5 1 2 2 1 2 3 5 5 3 1 2 1 0 2 1 1 2 4 1 1 3 3 2 4 4 3 2 0 2 2 3 5 6 5 4 3 4 5 4 4 3 3 3 4 3 3 1 7 5 4 9 10 10 6 4 6 6 7 9 8 9 9 9 9 8 8 8 8
12 11 10 9 8 8 8 7 5 7 7 4 1 2 3 1 3 5 4 1 2 3 4 3 1 3 4 2 1 3 3 1 2 4 4 3 3 3 3 4 5 1 3 4 4 4 2 4 3 1 2 4 6 5 3 4 2 4 4 5 3 4 3 3 3 1 3 7 3 2 3 5 12 10 6 8 10 10 11 10 9 9 9 8 7 7 6 6
11 11 10 11 12 13 14 14 10 9 8 3 0 3 6 3 7 5 5 3 3 2 2 3 1 2 4 2 2 3 3 2 3 3 2 3 3 5 5 4 6 2 3 4 1 2 3 4 1 3 2 3 8 6 2 2 3 5 5 4 3 1 1 3 4 2 5 7 2 3 3 4 9 7 11 17 17 16 14 11 10 8 9 8 4 4 5 6
12 11 13 14 14 14 15 14 11 8 6 2 2 4 4 7 6 6 8 8 3 1 2 3 3 2 3 2 4 4 3 4 4 5 3 3 3 5 6 6 6 2 2 2 1 2 4 7 4 6 3 5 10 7 4 6 5 4 4 5 5 5 4 5 4 4 7 6 3 1 2 4 4 3 8 14 13 14 13 10 8 7 9 6 3 3 5 6
15 15 16 15 14 14 14 14 12 8 3 2 4 4 7 10 3 4 7 6 2 1 2 2 4 3 2 2 3 4 4 4 3 6 4 4 5 5 5 7 8 6 4 3 3 3 4 8 5 2 1 6 8 3 4 7 4 2 2 4 3 5 5 3 3 4 1 5 5 3 4 6 4 2 4 4 4 10 13 10 7 10 11 6 4 7 6 6
19 18 18 17 16 14 14 16 14 9 3 4 4 7 10 7 3 4 5 5 5 5 4 1 3 4 4 3 3 4 3 3 2 4 4 4 5 6 5 6 10 12 9 6 3 3 2 6 2 2 2 3 4 2 2 3 3 3 2 3 4 4 5 2 3 1 4 3 7 2 5 10 6 5 5 4 5 10 11 7 8 13 11 6 6 8 7 8
22 17 15 17 19 17 16 18 16 11 4 4 7 11 7 4 5 6 5 5 4 6 7 4 4 6 5 4 5 6 4 2 3 4 3 3 4 6 7 5 7 16 17 10 4 4 3 4 3 3 2 2 1 2 2 2 3 6 4 5 3 2 3 2 2 3 2 4 6 4 9 15 12 8 0 5 7 13 11 9 11 12 10 8 9 9 10 9
20 11 11 19 23 20 18 20 18 11 4 4 10 13 4 4 6 5 5 5 3 5 7 7 6 6 7 6 4 5 6 4 4 4 4 4 4 5 9 5 6 15 20 12 3 3 4 4 5 2 2 0 2 2 2 3 2 5 3 3 3 3 2 2 2 3 3 4 6 11 15 16 15 8 2 6 12 14 12 11 10 11 11 10 10 11 11 9
17 6 7 17 24 22 23 24 19 9 2 6 12 12 4 4 5 4 7 6 4 5 8 8 7 4 5 7 4 4 7 7 7 5 4 5 5 4 8 6 6 11 14 12 6 2 3 4 5 1 2 0 2 2 6 3 1 2 0 1 1 2 4 3 3 3 3 3 5 13 16 14 11 6 8 11 13 12 12 11 10 12 13 11 9 10 10 8
14 4 3 12 22 25 27 24 13 6 5 8 10 7 2 3 5 6 9 8 3 3 6 6 6 4 4 5 3 4 6 6 6 5 4 5 4 5 7 7 5 4 4 6 5 1 3 3 5 1 3 1 3 6 8 9 7 4 3 3 2 1 2 1 1 2 4 4 3 6 12 16 7 8 10 11 10 11 12 10 9 11 11 10 10 10 9 8
9 4 3 16 30 32 27 16 6 5 5 7 9 5 2 2 4 5 6 6 3 2 2 5 7 6 5 5 3 4 5 4 5 5 4 5 5 5 8 9 8 7 5 3 4 3 3 3 5 3 2 5 6 4 2 5 8 9 8 8 9 6 4 1 4 3 3 3 5 4 10 19 6 7 6 7 7 9 11 11 10 9 11 11 10 10 9 8
5 4 3 22 42 39 22 8 5 6 6 7 6 4 3 3 3 4 4 4 3 2 0 2 6 7 5 5 4 5 6 4 6 6 5 6 8 8 6 6 9 10 8 4 3 3 3 2 3 6 6 5 5 2 0 2 5 6 5 6 7 6 6 6 8 5 2 2 3 4 6 18 6 7 3 6 8 9 10 11 10 9 10 10 8 8 8 8
6 4 4 24 44 37 16 6 6 5 6 5 3 2 1 2 2 4 6 6 5 4 3 4 5 7 7 5 4 5 7 6 6 7 5 5 8 9 5 8 11 8 5 3 2 1 2 2 3 6 6 3 4 3 2 2 3 3 4 4 6 8 9 8 6 3 3 5 3 4 6 19 9 5 4 5 5 7 7 7 9 8 7 6 7 7 7 8
6 3 3 19 37 28 11 8 8 8 9 6 7 7 3 1 5 6 6 7 7 6 7 7 5 6 7 5 5 7 8 7 6 7 7 7 7 4 7 13 12 8 5 4 4 5 4 3 4 4 5 5 4 2 3 4 1 4 4 5 8 11 10 4 1 1 3 6 8 5 10 19 11 2 4 3 5 7 6 5 7 7 5 5 6 7 8 8
4 3 2 12 25 19 8 5 4 6 12 14 13 12 8 4 5 8 8 8 7 5 5 6 4 5 5 4 4 7 8 8 8 5 6 8 4 1 6 13 15 11 5 1 4 7 6 5 7 7 9 11 11 8 3 2 3 2 2 6 11 15 15 8 3 6 8 6 10 8 15 20 17 11 9 9 10 12 9 5 5 6 7 7 7 8 9 7
5 3 2 6 10 10 8 6 2 2 9 13 10 9 12 11 6 4 7 8 6 3 2 2 2 4 6 6 6 10 11 11 9 7 7 6 3 2 3 9 11 7 1 2 5 7 3 4 10 13 15 14 15 14 5 7 5 5 7 11 14 18 19 12 8 10 8 5 7 18 24 22 21 23 23 20 20 20 15 8 6 7 8 9 9 10 9 7
5 4 5 6 4 7 9 9 8 6 4 7 6 5 11 14 8 3 5 7 7 6 4 3 4 6 8 10 11 13 14 12 10 13 14 8 3 3 1 1 4 2 3 1 3 5 2 5 12 18 20 19 20 20 9 8 7 10 10 13 16 17 17 16 16 17 8 5 12 24 24 18 20 27 29 27 26 23 16 13 11 9 9 9 9 9 7 7
5 3 5 8 5 7 11 12 16 16 10 7 7 7 9 12 11 8 6 3 3 7 7 5 9 15 15 15 13 11 10 9 10 15 15 9 4 2 2 0 3 1 2 1 2 2 3 7 13 16 19 19 19 21 11 7 8 10 9 14 18 17 18 20 22 22 16 14 19 20 16 15 21 28 29 28 27 21 15 15 14 11 9 8 8 8 8 9
5 2 2 7 6 8 14 17 18 20 18 13 9 10 13 16 18 14 6 3 2 8 11 11 15 21 22 18 12 7 7 9 12 13 11 8 6 3 2 4 2 2 1 2 1 2 3 6 12 12 13 14 16 18 10 5 11 14 11 16 20 17 17 19 23 27 28 26 22 19 16 18 24 28 25 24 24 17 12 15 17 16 15 12 12 11 9 10
6 3 3 6 7 8 11 12 12 13 16 14 11 12 16 19 21 14 7 9 10 8 12 19 23 19 17 15 12 12 17 18 17 14 8 6 6 4 4 5 2 2 1 2 2 2 3 6 9 6 7 12 17 18 11 9 15 18 16 23 26 15 11 18 25 26 25 22 20 20 20 20 24 24 20 21 22 17 15 20 22 21 18 16 17 14 11 12
12 6 3 3 7 10 10 9 9 10 11 12 12 14 16 19 22 18 11 13 16 10 11 21 25 13 8 11 15 22 26 22 20 19 10 7 6 6 4 4 4 4 2 3 2 2 4 5 4 3 6 12 17 16 11 10 11 12 18 29 27 14 12 20 24 20 16 15 17 19 17 18 21 18 14 17 16 13 17 21 20 18 15 14 16 16 14 13
12 7 3 3 5 9 10 9 10 10 9 11 16 18 18 19 21 18 12 9 14 16 13 17 20 11 6 12 21 25 24 21 21 20 12 5 6 6 5 6 7 7 5 4 2 3 4 4 3 5 7 12 16 13 5 4 4 9 16 21 20 17 19 22 24 21 15 11 13 16 16 19 21 16 17 19 13 10 15 18 17 15 13 13 16 16 15 13
Wind_Direction
12 12 9 8 7 7 8 9 11 12 13 12 13 14 16 17 18 18 14 9 0 354 358 359 341 289 267 255 267 301 333 339 317 182 170 203 81 47 7 10 4 359 11 12 46 167 177 18 4 113 124 81 14 350 32 35 70 54 79 105 191 179 201 192 183 197 174 192 192 190 180 148 169 190 167 94 50 67 128 264 291 308 304 249 267 169 161 164
3 3 1 1 359 359 360 0 2 3 5 5 6 6 8 10 11 12 11 8 359 349 345 350 350 317 278 259 263 286 318 331 305 247 196 195 161 47 20 14 12 4 12 28 64 125 136 358 28 95 72 46 353 350 49 13 65 84 112 96 241 196 208 203 179 191 185 145 161 177 182 161 184 168 157 195 224 114 168 243 309 308 281 234 178 154 157 162
354 355 355 354 354 354 353 353 354 355 357 358 359 360 1 2 4 5 5 5 0 348 336 339 344 335 306 265 259 276 310 335 321 245 212 206 222 31 18 16 16 15 20 35 45 66 109 138 136 110 57 58 357 3 49 15 28 158 115 94 247 210 227 225 189 201 204 152 144 169 171 179 209 159 160 188 173 171 200 215 207 237 226 172 164 159 159 163
348 349 350 349 349 349 348 349 349 350 351 352 353 354 354 356 358 358 359 359 358 349 331 328 335 337 328 282 254 266 314 354 291 207 186 215 247 349 4 13 12 18 32 42 41 49 91 114 112 98 71 66 340 12 60 348 305 141 113 178 231 190 226 218 201 212 196 158 150 143 134 193 213 162 178 156 148 226 233 220 206 214 196 168 176 170 166 168
345 344 346 345 344 344 344 344 344 345 345 346 348 349 350 351 352 353 354 353 354 351 333 319 327 335 337 312 245 261 8 28 265 186 174 226 235 307 344 3 9 20 38 45 46 52 79 90 78 57 61 73 352 25 75 302 53 93 253 234 217 162 198 215 200 204 162 121 116 123 152 187 151 172 195 170 194 228 227 224 216 210 175 168 175 174 173 174
342 341 340 339 340 338 339 339 339 340 340 341 343 345 347 347 348 350 350 349 350 350 338 317 321 329 339 34 215 226 97 324 251 175 206 232 230 284 331 351 6 24 32 58 66 66 62 49 58 60 55 67 30 73 201 297 24 131 275 287 230 199 232 210 186 213 157 125 145 161 176 145 142 238 212 192 221 218 176 234 216 191 171 172 170 170 176 179
339 339 336 334 334 333 334 335 335 335 335 337 338 341 343 344 345 346 346 346 347 348 339 317 315 311 328 96 162 95 90 258 241 186 226 233 234 270 324 331 4 25 30 77 69 93 77 42 67 118 89 80 183 163 184 304 26 98 204 278 237 206 233 215 154 202 159 154 189 161 133 155 184 234 118 214 232 221 210 259 196 170 163 168 170 176 185 184
335 335 332 330 328 328 330 331 332 331 331 333 334 337 339 340 341 342 342 342 343 343 334 310 301 283 212 142 159 21 338 248 208 189 225 235 236 256 289 304 21 30 73 67 64 134 106 58 115 153 95 104 178 155 99 289 27 82 168 243 219 225 255 269 150 171 163 186 152 124 185 215 196 201 280 237 234 220 195 149 146 153 154 169 180 184 189 187
327 326 325 324 323 324 325 327 329 328 329 330 332 334 336 337 337 339 339 339 341 336 329 307 286 264 220 165 100 22 275 211 174 187 216 227 228 238 249 204 90 101 98 66 64 125 120 143 188 192 160 149 159 151 89 178 256 174 166 196 196 277 296 336 241 172 156 217 121 150 243 272 262 289 271 253 227 176 134 129 146 152 161 182 185 188 189 188
319 319 318 318 318 320 321 323 325 326 328 328 330 332 333 334 333 335 335 336 337 330 322 296 278 254 217 178 93 79 249 180 175 202 200 203 195 194 187 128 111 123 105 77 67 77 104 176 180 156 144 124 135 148 300 147 172 164 152 180 191 297 318 2 302 310 1 222 169 193 248 284 335 334 258 266 166 146 130 137 164 164 178 189 187 195 192 193
317 316 314 314 315 315 316 318 321 324 325 327 329 330 331 332 331 332 332 332 333 325 305 285 278 235 203 153 125 208 225 172 186 188 168 190 175 175 133 101 104 120 114 87 82 80 107 157 148 124 141 132 126 64 283 174 119 125 129 190 300 337 312 314 303 300 307 226 176 173 245 291 7 246 239 238 130 155 145 159 183 182 192 191 191 195 193 201
317 315 313 312 311 311 313 315 318 320 321 325 327 328 331 329 328 329 329 330 330 319 283 281 268 215 179 109 179 215 208 177 187 173 169 185 160 148 97 84 86 101 131 108 105 110 116 147 133 104 207 148 131 46 202 149 92 110 112 218 307 358 337 269 300 289 222 210 173 144 280 266 211 230 238 156 143 154 149 177 192 195 198 195 197 197 200 205
318 316 314 312 311 311 311 314 317 317 317 321 323 327 329 327 327 326 328 329 324 301 261 274 255 201 152 298 223 207 202 187 191 184 163 163 147 117 85 85 88 87 110 121 124 120 118 151 127 108 128 116 137 177 118 62 63 133 88 101 318 358 342 260 60 49 156 190 173 141 282 250 218 236 240 129 155 143 163 202 197 202 204 201 203 201 208 206
319 316 314 313 313 310 310 313 316 315 316 319 321 324 326 326 324 324 328 328 317 280 248 254 224 177 144 256 227 196 206 197 194 190 163 168 149 115 94 92 94 94 99 112 121 114 109 130 110 98 96 88 136 139 53 12 32 115 22 68 31 3 291 288 49 123 162 190 149 136 269 263 245 249 236 167 172 162 192 215 199 207 207 205 208 206 213 209
319 317 316 314 313 312 310 312 313 314 316 317 320 324 326 325 321 324 329 327 315 251 219 198 184 152 87 278 241 189 208 199 199 195 168 169 159 137 119 115 108 102 100 104 107 105 108 115 93 78 8 353 73 83 19 347 7 33 333 306 340 176 268 298 272 170 195 297 100 150 245 274 269 265 247 175 178 185 208 218 206 212 210 210 211 208 217 216
319 317 316 315 315 313 311 312 312 313 314 316 320 323 325 323 319 323 327 323 312 228 164 178 179 146 34 277 215 185 210 196 197 193 173 164 168 157 134 124 112 103 106 105 101 101 92 81 64 66 126 39 78 83 32 4 345 2 46 254 272 239 282 311 289 210 220 138 222 212 236 281 273 272 293 186 189 203 222 228 217 216 215 211 212 212 215 218
317 317 316 316 315 314 313 313 313 313 313 317 321 323 325 321 316 321 326 329 169 164 125 159 166 141 287 239 158 272 227 175 179 178 169 150 144 150 138 119 103 105 103 98 102 94 50 51 72 303 44 47 91 93 40 338 300 322 16 252 251 234 258 301 298 271 188 165 218 227 233 257 261 261 227 196 200 208 226 232 222 219 218 212 213 216 216 215
315 316 316 315 314 314 313 313 314 314 314 318 324 324 323 316 311 314 283 130 111 99 87 109 120 104 281 230 206 261 174 155 165 160 164 148 131 144 141 118 116 109 72 51 61 60 11 35 81 344 18 19 67 98 152 239 219 226 237 248 275 261 237 252 268 264 129 195 228 205 232 253 263 268 244 203 198 215 229 231 228 225 218 215 214 217 219 218
314 316 316 316 316 315 314 315 315 316 316 320 326 325 318 310 306 262 197 121 123 132 182 220 147 145 238 252 251 222 136 153 162 166 166 149 135 134 118 98 102 98 74 30 321 20 60 52 68 205 230 211 193 171 197 210 178 185 204 198 230 256 258 235 236 253 162 241 255 226 235 254 262 268 263 229 195 224 240 235 236 236 221 214 217 221 221 221
314 315 315 318 318 316 317 318 316 317 319 324 333 335 326 328 346 315 307 235 205 185 188 216 199 214 256 269 189 157 153 167 181 181 166 160 149 131 96 57 53 62 115 178 213 10 99 174 232 221 210 207 209 198 188 177 146 140 150 181 221 233 266 254 229 281 158 210 264 244 244 259 260 264 266 252 196 232 245 237 239 237 222 214 217 223 221 224
312 312 312 317 318 317 322 323 318 316 319 325 336 339 293 160 317 301 310 291 257 221 237 237 212 256 262 236 181 164 152 209 226 181 167 168 143 149 235 42 84 20 259 177 161 1 94 207 239 224 204 198 196 174 134 120 119 115 152 199 253 225 253 269 270 316 339 176 267 287 282 268 262 261 263 251 219 240 238 226 239 236 222 218 220 226 224 226
308 308 308 311 316 318 322 325 318 313 314 315 319 306 170 177 196 217 103 299 287 253 239 267 250 264 259 231 203 159 127 240 264 229 179 159 116 187 234 76 142 208 284 118 131 1 59 237 245 214 161 115 87 126 126 121 124 113 134 169 262 237 265 296 346 356 1 179 273 306 296 275 268 261 256 242 232 249 240 214 234 234 219 222 222 226 224 222
309 309 310 307 314 318 320 323 317 310 308 296 286 193 164 156 156 155 124 278 293 283 225 234 211 238 250 241 200 162 164 212 237 253 186 156 134 188 158 118 156 174 152 177 173 163 208 254 256 177 140 114 82 106 118 107 122 147 145 171 247 243 258 286 308 336 245 191 282 293 282 273 269 259 255 247 237 254 254 225 236 230 217 225 224 222 219 217
313 307 311 310 316 319 319 320 314 305 296 276 255 201 176 153 144 145 113 67 289 289 246 215 205 209 207 197 178 173 203 209 195 246 180 157 146 160 160 149 146 175 219 195 176 191 228 245 159 114 128 123 119 143 140 146 229 239 195 203 234 235 220 237 287 326 317 354 334 309 292 276 262 245 253 273 278 265 258 243 246 234 224 233 231 226 220 217
317 301 302 312 320 320 319 318 315 310 293 267 201 184 167 161 150 124 63 24 285 296 289 229 220 211 185 124 152 174 181 237 215 223 172 162 151 140 177 161 152 211 210 165 161 216 249 235 127 115 109 113 136 188 191 174 205 292 232 216 223 230 231 251 353 4 358 335 334 2 321 288 278 222 255 289 315 262 256 254 251 238 226 229 234 232 223 221
321 307 298 308 316 320 321 317 324 329 307 268 188 171 161 167 171 136 77 38 276 273 278 214 194 181 169 123 144 159 117 282 263 136 150 172 168 135 147 163 110 211 178 141 159 220 262 335 102 131 146 151 176 235 226 172 149 286 251 211 207 200 188 165 40 30 317 263 302 45 323 279 278 188 241 254 255 258 263 266 260 246 225 219 228 232 223 222
315 314 303 298 307 323 325 307 320 328 311 268 186 182 180 174 186 188 57 357 277 232 165 216 223 151 167 175 147 140 183 270 8 72 112 153 214 88 146 198 145 200 181 132 195 234 136 82 73 118 133 158 200 246 221 158 139 238 244 130 138 142 153 161 115 139 236 274 319 310 180 274 277 229 230 233 247 270 276 269 268 254 230 222 227 231 223 220
301 310 303 286 294 322 315 300 313 322 305 290 198 193 190 178 194 136 73 278 270 157 132 246 56 114 129 16 72 115 218 293 87 270 349 72 220 64 169 221 175 185 194 139 208 255 116 145 171 148 134 179 207 237 198 162 154 236 195 116 117 126 138 135 117 179 270 21 303 249 158 266 274 242 285 270 230 263 267 260 262 255 235 226 228 231 226 221
295 305 297 267 294 317 305 296 299 297 301 296 243 222 185 186 196 75 98 243 262 58 104 110 122 100 49 82 38 74 1 354 110 267 346 67 219 67 174 214 148 156 200 142 221 258 92 192 191 149 153 203 206 296 188 171 185 186 139 98 75 73 79 80 114 152 35 334 258 237 166 222 274 217 121 59 198 242 253 254 257 253 238 228 229 232 228 222
288 297 290 263 298 309 300 293 282 277 288 280 260 220 180 180 113 119 231 237 244 233 145 111 178 166 102 132 255 291 178 290 11 354 6 81 15 34 129 175 100 120 320 350 274 252 5 270 195 150 172 182 138 78 50 119 143 136 112 68 50 42 51 50 58 94 30 267 256 232 180 190 272 237 154 179 200 209 222 245 258 256 245 230 227 232 224 214
272 276 278 270 268 284 302 306 302 295 282 276 257 179 161 49 95 191 232 232 250 245 161 171 198 135 140 165 218 199 154 286 260 132 140 157 39 40 78 161 94 79 348 323 291 292 354 65 227 214 152 127 104 77 37 50 98 109 92 67 38 342 10 20 356 55 256 256 257 237 181 187 243 245 183 225 242 220 208 222 238 237 240 231 219 227 221 211
259 261 267 266 252 255 260 262 301 319 299 286 246 143 103 59 229 208 218 222 247 223 172 182 198 157 179 184 207 178 164 231 207 161 162 157 163 180 200 194 159 85 308 247 268 326 294 216 218 203 158 144 117 88 28 7 54 98 94 82 51 325 350 343 305 131 228 257 251 147 154 217 246 247 239 249 256 245 227 221 221 220 234 236 214 214 217 211
249 249 250 254 248 248 246 250 275 297 298 297 221 65 87 206 237 180 164 205 222 219 136 116 92 137 150 133 241 199 165 214 190 162 173 142 169 228 256 227 171 170 253 212 224 340 293 290 149 162 241 183 158 163 202 231 170 156 143 126 140 151 52 273 270 276 268 270 269 132 146 248 270 259 227 226 230 232 230 228 223 226 238 242 228 206 210 218
237 236 237 243 246 247 243 244 256 271 297 351 98 84 122 228 236 142 178 218 222 21 54 94 88 109 149 181 232 200 180 229 170 151 186 135 160 236 245 230 201 153 113 156 174 174 246 284 204 176 222 177 181 198 165 136 150 177 156 141 160 157 172 229 235 249 274 289 293 238 183 224 259 266 218 221 230 231 233 232 223 243 250 243 261 249 225 229
231 235 238 237 237 240 233 230 239 249 278 71 116 150 204 223 204 145 196 205 191 76 46 57 93 118 241 263 262 234 211 237 142 136 186 176 186 209 196 204 196 160 131 170 217 171 219 265 241 187 270 170 178 205 113 113 133 207 131 121 180 179 173 223 220 193 251 317 291 232 223 227 218 273 250 230 240 230 234 238 230 251 253 237 257 259 243 238
227 232 235 228 225 223 216 220 226 219 171 111 157 211 224 221 168 180 197 165 173 155 119 17 97 139 254 277 255 247 215 232 168 155 207 207 214 212 196 208 190 180 182 178 195 174 196 276 288 46 309 189 171 188 135 133 167 164 147 174 207 181 138 160 265 38 66 290 274 231 257 274 280 274 239 174 206 228 233 238 232 244 249 232 243 250 243 241
218 222 223 215 216 213 211 217 209 191 142 113 196 219 222 215 181 179 174 147 160 138 135 212 204 171 215 233 226 212 180 214 187 172 213 217 231 203 195 238 194 189 200 194 203 202 176 268 250 162 213 230 160 123 71 10 131 133 190 208 177 123 101 109 253 345 25 253 272 274 265 278 281 277 263 131 214 237 238 233 233 244 249 239 241 245 244 242
209 211 223 217 217 214 213 207 185 165 118 135 222 237 214 196 205 174 154 144 141 145 163 211 212 179 194 213 226 186 171 196 179 179 210 213 245 191 168 210 201 197 207 200 225 242 168 237 252 164 151 328 29 100 108 346 75 126 198 197 115 143 165 113 166 235 251 236 278 280 273 274 264 251 160 178 214 228 236 234 233 242 242 239 241 243 245 242
200 208 242 217 215 215 205 190 168 148 146 183 223 240 205 202 234 200 180 168 137 164 189 218 219 199 192 189 184 168 183 196 175 182 212 201 238 204 165 194 209 205 207 188 194 236 150 215 247 358 354 11 44 179 189 201 85 68 68 90 59 160 167 168 169 178 204 196 269 284 284 276 254 189 164 203 215 215 225 228 225 231 234 231 231 237 241 234
182 209 260 187 196 200 186 172 156 156 199 206 222 229 181 217 241 231 215 197 165 176 197 212 210 212 213 188 180 183 195 207 182 188 226 204 231 239 196 196 184 177 188 176 198 219 90 216 231 342 337 251 185 209 199 185 171 159 163 173 209 158 121 218 230 125 140 180 228 274 280 274 252 141 164 200 208 207 210 215 217 224 232 229 224 228 231 228
163 218 232 169 177 177 166 161 172 188 206 230 236 231 200 210 217 240 235 203 206 244 163 176 193 205 207 191 200 183 171 207 194 192 237 221 225 242 213 192 160 132 106 114 225 212 148 205 214 193 254 234 222 224 191 180 173 171 185 188 189 178 132 171 251 225 149 192 203 187 266 271 253 119 162 186 187 208 205 206 216 217 224 227 225 225 225 225
162 220 184 169 172 166 158 176 206 195 220 231 228 225 202 188 190 223 218 179 204 265 7 183 200 205 204 189 192 174 166 205 204 198 236 229 217 229 220 175 149 141 133 138 211 204 129 128 215 232 239 240 256 293 311 212 157 159 203 192 177 172 149 177 227 229 156 211 211 113 266 267 255 99 144 174 174 207 205 202 214 218 222 226 228 234 232 230
189 203 133 168 172 164 158 205 206 203 236 242 261 272 198 170 203 208 199 189 193 199 217 225 197 206 223 197 171 182 190 210 202 190 219 237 228 228 188 140 140 142 138 143 163 132 98 114 203 252 275 323 348 354 337 344 92 150 235 182 168 195 195 202 217 182 170 206 178 97 254 261 270 90 144 193 200 227 224 210 218 224 229 235 239 243 239 236
186 176 92 169 176 173 174 204 202 209 224 236 253 249 254 270 215 202 194 200 200 185 203 221 202 210 224 184 177 203 198 208 216 198 205 229 241 225 155 148 159 174 184 188 179 171 178 176 171 229 279 291 297 321 349 335 277 213 229 173 191 212 209 223 21 98 230 197 156 158 245 258 269 97 138 217 247 247 238 217 227 236 237 237 239 242 239 235
159 138 66 175 185 193 209 211 201 216 217 222 233 232 238 258 224 207 202 209 216 185 195 226 199 191 202 168 194 218 200 212 231 219 212 227 254 285 169 173 180 191 202 196 164 168 179 182 172 198 232 241 249 248 233 229 206 221 218 176 197 209 203 204 211 219 230 177 147 195 244 255 266 271 262 260 259 256 245 216 222 238 237 235 236 239 236 229
170 162 153 176 193 214 233 231 219 239 220 219 227 228 227 238 256 224 198 213 233 200 190 278 153 170 200 188 210 231 221 221 225 223 229 226 234 286 208 192 197 202 26 62 152 159 161 193 195 211 225 230 246 251 205 130 154 200 202 194 202 209 206 204 225 231 217 150 183 228 240 253 269 276 275 271 267 266 265 255 243 238 237 235 236 238 232 220
196 193 172 172 188 215 229 236 225 230 227 200 202 216 217 226 251 260 192 208 219 199 213 251 194 196 208 198 212 231 225 220 220 230 239 234 233 280 357 179 235 263 31 31 184 152 130 224 216 222 232 233 246 253 218 150 198 213 197 206 213 211 204 204 225 232 201 159 230 238 241 255 268 268 269 271 270 271 276 278 271 262 252 242 237 238 224 216
204 203 170 178 185 196 208 217 215 219 220 190 192 219 220 220 226 222 207 205 202 195 205 229 217 217 218 208 213 228 226 225 230 234 240 240 231 268 23 13 256 254 103 42 296 150 163 233 229 229 240 241 249 258 237 181 236 235 204 218 224 213 203 207 225 233 220 220 240 244 242 246 254 258 261 266 271 276 284 284 280 274 264 252 243 234 214 215
209 244 193 192 202 196 202 210 208 211 216 208 207 221 224 225 224 216 190 137 215 208 200 217 225 221 221 218 213 221 225 227 234 233 233 231 210 183 236 251 275 1 148 168 249 190 168 241 242 240 255 257 257 260 243 201 251 256 240 239 239 225 209 214 228 234 232 236 249 258 255 248 251 256 260 267 274 284 294 289 285 279 273 267 262 247 224 223
207 210 185 196 217 212 213 217 206 207 214 211 213 221 223 229 229 223 188 181 209 209 194 219 232 222 215 215 210 221 226 225 236 240 215 193 196 181 205 222 177 54 231 186 219 232 201 234 245 257 278 267 262 267 258 229 244 255 257 254 250 235 210 225 234 237 241 248 257 264 264 259 256 258 264 273 279 286 287 280 279 278 277 276 273 263 241 231
235 233 175 192 220 211 214 219 202 205 215 208 214 222 224 228 228 227 222 208 215 215 190 215 233 230 194 198 209 225 229 225 232 238 215 172 181 185 191 200 161 135 202 213 188 201 211 230 252 279 275 263 265 274 264 235 239 252 254 255 254 240 221 237 242 240 241 249 258 262 262 259 261 265 267 265 265 268 269 269 271 272 272 270 268 267 257 243
249 248 214 223 229 202 207 219 208 209 214 205 213 218 220 226 224 224 233 226 220 223 208 210 226 227 191 204 217 226 231 228 232 238 232 194 180 187 182 178 169 163 180 198 172 164 195 216 243 245 253 261 264 265 240 180 225 250 246 249 253 247 243 250 257 254 240 229 248 257 255 260 268 275 272 264 255 247 254 260 265 268 271 265 259 258 257 250